This demonstration page uses our WeatherBlox Daily Observations layout. Learn more.

Left ArrowRight Arrow

Hourly Observations for March 29, 2020

Temp ( °F °C ) Dew Point ( °F °C ) Humidity (%) Winds ( mph kmh ) Pressure ( in mb ) Visibility ( mi km ) Precip ( " mm )
12:10 am 00:10 Cloudy with Light Rain 48 8.9 46 7.8 93 93 NNE 3 6 30.11 1020 4 6 0.05 1.27
12:53 am 00:53 Cloudy with Light Rain 49 9.4 46 7.8 90 90 N 3 6 30.09 1019 7 11 0.06 1.52
1:53 am 01:53 Cloudy with Light Rain 49 9.4 46 7.8 90 90 NNE 5 7 30.09 1019 7 11 0.02 0.51
2:25 am 02:25 Cloudy 49 9.4 46 7.8 90 90 Calm 30.09 1019 9 14 0.00 0.00
2:30 am 02:30 Cloudy with Light Rain 49 9.4 46 7.8 90 90 Calm 30.09 1019 6 10 0.00 0.00
2:38 am 02:38 Cloudy with Light Rain 49 9.4 46 7.8 90 90 NNE 3 6 30.09 1019 6 10 0.00 0.00
2:53 am 02:53 Cloudy with Light Rain 48 8.9 46 7.8 93 93 N 6 9 30.07 1018 4 6 0.00 0.00
3:37 am 03:37 Cloudy with Light Rain 48 8.9 46 7.8 93 93 NNE 6 9 30.08 1019 5 8 0.05 1.27
3:45 am 03:45 Cloudy with Rain 48 8.9 46 7.8 93 93 N 6 9 30.08 1019 4 6 0.07 1.78
3:53 am 03:53 Cloudy with Heavy Rain 48 8.9 46 7.8 93 93 N 6 9 30.06 1018 3 5 0.09 2.29
4:53 am 04:53 Cloudy with Light Rain 48 8.9 46 7.8 93 93 Calm 30.07 1018 7 11 0.14 3.56
5:00 am 05:00 Cloudy with Light Rain 48 8.9 46 7.8 93 93 Calm 30.08 1019 6 10 0.01 0.25
5:45 am 05:45 Cloudy with Light Rain 48 8.9 46 7.8 93 93 Calm 30.08 1019 5 8 0.05 1.27
5:53 am 05:53 Cloudy with Light Rain 48 8.9 46 7.8 93 93 Calm 30.07 1018 3 5 0.07 1.78
6:53 am 06:53 Cloudy 48 8.9 46 7.8 93 93 Calm 30.08 1019 10 16 0.01 0.25
7:50 am 07:50 Cloudy 48 9 46 8 94 94 S 6 9 30.10 1019 9 14 0.00 0.00
7:53 am 07:53 Cloudy 49 9.4 46 7.8 90 90 S 6 9 30.09 1019 8 13 0.00 0.00
8:03 am 08:03 Cloudy 49 9.4 46 7.8 90 90 SSW 6 9 30.10 1019 7 11 0.00 0.00
8:43 am 08:43 Cloudy 49 9.4 47 8.3 93 93 Calm 30.12 1020 7 11 0.00 0.00
8:53 am 08:53 Cloudy 50 10 47 8.3 89 89 SSW 3 6 30.11 1020 8 13 0.00 0.00
9:53 am 09:53 Cloudy with Light Rain 50 10 47 8.3 89 89 S 7 11 30.12 1020 6 10 0.01 0.25
10:00 am 10:00 Cloudy with Light Rain 50 10 47 8.3 89 89 S 8 13 30.13 1020 5 8 0.00 0.00
10:53 am 10:53 Cloudy with Mist and Fog 50 10 47 8.3 89 89 S 10 17 30.12 1020 6 10 0.00 0.00
11:53 am 11:53 Cloudy 53 11.7 47 8.3 80 80 S 8 13 30.14 1021 10 16 0.00 0.00
12:05 pm 12:05 Cloudy 54 12.2 47 8.3 77 77 S 10 17 30.13 1020 10 16 0.00 0.00
12:53 pm 12:53 Cloudy 54 12.2 46 7.8 75 75 S 9 15 30.12 1020 10 16 0.00 0.00
1:53 pm 13:53 Mostly Cloudy 57 13.9 46 7.8 67 67 SW 9 15 30.11 1020 10 16 0.00 0.00
2:00 pm 14:00 Mostly Sunny 57 13.9 46 7.8 67 67 SSW 7 11 30.12 1020 10 16 0.00 0.00
2:07 pm 14:07 Mostly Cloudy 57 13.9 47 8.3 69 69 S 7 11 30.11 1020 10 16 0.00 0.00
2:53 pm 14:53 Mostly Cloudy 57 13.9 45 7.2 64 64 S 5 7 30.09 1019 10 16 0.00 0.00
3:53 pm 15:53 Mostly Cloudy 58 14.4 45 7.2 62 62 S 8 13 30.06 1018 10 16 0.00 0.00
4:53 pm 16:53 Cloudy 58 14.4 45 7.2 62 62 S 9 15 30.05 1018 10 16 0.00 0.00
5:53 pm 17:53 Mostly Cloudy 59 15 45 7.2 60 60 S 7 11 30.04 1017 10 16 0.00 0.00
6:53 pm 18:53 Cloudy 58 14.4 45 7.2 62 62 SSW 5 7 30.05 1018 10 16 0.00 0.00
7:53 pm 19:53 Cloudy 56 13.3 48 8.9 75 75 W 5 7 30.05 1018 10 16 0.00 0.00
8:53 pm 20:53 Cloudy 53 11.7 49 9.4 86 86 WNW 6 9 30.06 1018 10 16 0.00 0.00
9:53 pm 21:53 Cloudy 54 12.2 49 9.4 83 83 Calm 30.08 1019 10 16 0.00 0.00
10:53 pm 22:53 Cloudy 54 12.2 50 10 87 87 E 3 6 30.09 1019 10 16 0.00 0.00
11:53 pm 23:53 Cloudy 54 12.2 50 10 87 87 Calm 30.09 1019 10 16 0.00 0.00

Powered by AerisWeather